Location: Brunembert
(50.7122°N, 1.8935°E)
Time: 09:05:30
(UTC+00:00)

Cosmos 2082 - Pass Details

Date: 22 April 2021
Orbit: 834 x 855 km, 71.0° (Epoch: 16 May)

Event Time Altitude Azimuth Distance (km) Brightness Sun altitude
Exits shadow 20:37:19 - 177° (S) 2,542 5.8 -14.1°
Reaches altitude 10° 20:37:37 10° 176° (S) 2,438 5.7 -14.1°
Maximum altitude 20:42:46 40° 108° (ESE) 1,222 4.1 -14.7°
Drops below altitude 10° 20:47:58 10° 41° (NE) 2,458 6.1 -15.3°
Sets 20:50:32 0° 34° (NE) 3,399 7.0 -15.6°
